Location: Unspecified
(42.3650°N, 71.1030°W)
Time: 12:23:27
(UTC+00:00)

Transit 2A Rocket - All Passes

Search period start: 25 June 2024 00:00
Search period end: 05 July 2024 00:00
Orbit: 583 x 910 km, 66.7° (Epoch: 25 June)

Date Brightness Start Highest point End Pass type
(mag) Time Alt. Az. Time Alt. Az. Time Alt. Az.
25 Jun - 00:35:03 10° SW 00:40:06 68° WNW 00:45:43 10° NNE daylight
25 Jun - 02:20:45 10° WNW 02:23:49 15° NW 02:27:00 10° N visible
25 Jun - 07:35:20 10° N 07:40:06 23° NE 07:44:52 10° E visible
25 Jun - 09:17:12 10° NNW 09:23:18 78° WSW 09:29:18 10° SSE daylight
25 Jun - 11:02:33 10° WNW 11:04:52 12° W 11:07:09 10° WSW daylight
25 Jun - 23:51:01 10° SSW 23:56:02 71° ESE 00:01:36 10° NE daylight
26 Jun - 01:35:07 10° W 01:39:11 22° NW 01:43:32 10° N visible
26 Jun - 06:51:48 10° N 06:55:29 16° NE 06:59:11 10° ENE visible
26 Jun - 08:33:08 10° NNW 08:39:12 66° ENE 08:45:11 10° SE visible
26 Jun - 10:16:41 10° WNW 10:21:12 22° WSW 10:25:40 10° SSW daylight
26 Jun - 23:07:28 10° S 23:12:08 39° ESE 23:17:15 10° NE daylight
27 Jun - 00:50:01 10° WSW 00:54:43 33° NW 00:59:50 10° NNE visible
27 Jun - 06:08:46 10° N 06:10:44 11° NNE 06:12:43 10° NE visible
27 Jun - 07:49:11 10° NNW 07:54:57 42° NE 08:00:38 10° ESE visible
27 Jun - 09:31:55 10° NW 09:37:26 37° WSW 09:42:51 10° S daylight
27 Jun - 22:24:31 10° SSE 22:28:23 22° ESE 22:32:31 10° ENE daylight
28 Jun - 00:05:22 10° SW 00:10:23 53° NW 00:15:57 10° NNE daylight
28 Jun - 01:51:56 10° WNW 01:54:21 13° NNW 01:56:52 10° N visible
28 Jun - 07:05:24 10° NNW 07:10:33 28° NE 07:15:40 10° ESE visible
28 Jun - 08:47:31 10° NW 08:53:32 62° WSW 08:59:25 10° SSE daylight
28 Jun - 21:42:55 10° ESE 21:44:46 12° E 21:46:41 10° E daylight
28 Jun - 23:21:08 10° SSW 23:26:15 89° NW 23:31:55 10° NNE daylight
29 Jun - 01:05:57 10° W 01:09:39 18° NW 01:13:35 10° N visible
29 Jun - 06:21:46 10° N 06:26:00 19° NE 06:30:15 10° E visible
29 Jun - 08:03:21 10° NNW 08:09:29 82° ENE 08:15:30 10° SSE visible
29 Jun - 09:47:33 10° WNW 09:51:17 17° WSW 09:54:57 10° SW daylight
29 Jun - 22:37:21 10° S 22:42:16 52° ESE 22:47:41 10° NE daylight
30 Jun - 00:20:38 10° WSW 00:25:07 27° NW 00:29:57 10° NNE daylight
30 Jun - 05:38:24 10° N 05:41:19 14° NNE 05:44:15 10° ENE visible
30 Jun - 07:19:21 10° NNW 07:25:18 51° NE 07:31:09 10° SE visible
30 Jun - 09:02:26 10° NW 09:07:34 29° WSW 09:12:36 10° SSW daylight
30 Jun - 21:54:04 10° SSE 21:58:26 29° ESE 22:03:10 10° NE daylight
30 Jun - 23:35:47 10° WSW 23:40:43 42° NW 23:46:08 10° NNE daylight
01 Jul - 01:23:26 10° NW 01:24:55 11° NNW 01:26:27 10° NNW visible
01 Jul - 06:35:29 10° NNW 06:40:58 33° NE 06:46:23 10° ESE visible
01 Jul - 08:17:53 10° NW 08:23:43 49° WSW 08:29:25 10° S visible
01 Jul - 21:11:37 10° SE 21:14:45 16° ESE 21:18:03 10° ENE daylight
01 Jul - 22:51:20 10° SW 22:56:29 71° WNW 23:02:11 10° NNE daylight
02 Jul - 00:36:54 10° WNW 00:40:10 16° NW 00:43:33 10° N daylight
02 Jul - 05:51:45 10° N 05:56:29 23° NE 06:01:11 10° E visible
02 Jul - 07:33:37 10° NNW 07:39:44 81° WSW 07:45:42 10° SSE visible
02 Jul - 09:18:48 10° WNW 09:21:18 13° W 09:23:47 10° SW daylight
02 Jul - 22:07:20 10° SSW 22:12:25 69° ESE 22:18:02 10° NE daylight
02 Jul - 23:51:19 10° W 23:55:32 23° NW 00:00:02 10° N daylight
03 Jul - 05:08:14 10° N 05:11:51 16° NE 05:15:28 10° ENE visible
03 Jul - 06:49:32 10° NNW 06:55:36 64° NE 07:01:33 10° SE visible
03 Jul - 08:33:03 10° WNW 08:37:39 23° WSW 08:42:09 10° SSW visible
03 Jul - 21:23:48 10° S 21:28:31 38° ESE 21:33:40 10° NE daylight
03 Jul - 23:06:15 10° WSW 23:11:04 34° NW 23:16:17 10° NNE daylight
04 Jul - 04:25:14 10° N 04:27:05 11° NNE 04:28:55 10° NE visible
04 Jul - 06:05:36 10° NNW 06:11:20 41° NE 06:16:58 10° ESE visible
04 Jul - 07:48:17 10° NW 07:53:52 38° WSW 07:59:17 10° S visible
04 Jul - 20:40:53 10° SSE 20:44:46 22° ESE 20:48:53 10° ENE daylight
04 Jul - 22:21:37 10° SW 22:26:44 56° NW 22:32:23 10° NNE daylight
